Location: Rioux
(40.7500°S, 175.7500°E)
Time: 11:23:26
(UTC+00:00)

Cosmos 2061 Rocket - Pass Details

Date: 12 June 2024
Orbit: 965 x 1012 km, 82.9° (Epoch: 20 July)

Event Time Altitude Azimuth Distance (km) Brightness Sun altitude
Exits shadow 17:03:44 70° 217° (SW) 1,088 4.0 -28.4°
Maximum altitude 17:04:29 79° 275° (W) 1,045 3.9 -28.3°
Drops below altitude 10° 17:10:54 10° 0° (N) 2,789 6.5 -27.1°
Sets 17:13:25 0° 1° (N) 3,728 7.2 -26.6°
